Location: Casteau
(50.5142°N, 4.0161°E)
Time: 04:57:40
(UTC+00:00)

Cosmos 2263 Rocket - Pass Details

Date: 18 September 2020
Orbit: 822 x 850 km, 71.0° (Epoch: 29 October)

Event Time Altitude Azimuth Distance (km) Brightness Sun altitude
Rises 19:31:30 0° 225° (SW) 3,349 5.6 -16.4°
Reaches altitude 10° 19:33:59 10° 231° (SW) 2,422 4.9 -16.8°
Maximum altitude 19:39:22 51° 306° (NW) 1,040 3.1 -17.6°
Drops below altitude 10° 19:44:50 10° 23° (NNE) 2,450 4.6 -18.4°
Sets 19:47:22 0° 28° (NNE) 3,391 5.3 -18.7°
